Regional Weather Roundup
Issued by NWS

Home | Current Version | Previous Version | Graphics & Text | Print | Product List | Glossary On
Versions: 1 2 3 4 5 6 7 8 9 10 11 12 13 14 15 16 17 18 19 20 21 22 23 24 25 26 27 28 29 30 31 32 33 34 35 36 37 38 39 40 41 42 43 44 45 46 47 48 49 50
000
ASUS43 KMKX 060921
RWRWI

WISCONSIN REGIONAL WEATHER ROUNDUP
NATIONAL WEATHER SERVICE MILWAUKEE/SULLIVAN WI
400 AM CDT FRI MAY 06 2016

NOTE: "FAIR" INDICATES FEW OR NO CLOUDS BELOW 12,000 FEET WITH NO
SIGNIFICANT WEATHER AND/OR OBSTRUCTIONS TO VISIBILITY.

WIZ001-002-006>008-014>016-023>028-061000-
NORTHWEST WISCONSIN

CITY           SKY/WX    TMP DP  RH WIND       PRES   REMARKS
SUPERIOR ARPT  CLEAR     43  38  83 CALM      29.77S
ASHLAND        PTCLDY    63  41  44 SW9       29.76F
HAYWARD        CLEAR     46  39  76 CALM      29.82S
SIREN          CLEAR     62  43  49 W8        29.83R
CUMBERLAND     CLEAR     55  39  54 SW3       29.84S
RICE LAKE      CLEAR     48  40  75 CALM      29.85S
CHETEK         CLEAR     45  42  88 CALM      29.84S
LADYSMITH      CLEAR     49  39  68 SE3       29.86S
EAU CLAIRE     CLEAR     46  40  79 CALM      29.84F
MENOMONIE      CLEAR     49  42  77 E7        29.85S
NEW RICHMOND   CLEAR     52  41  66 S3        29.86S
OSCEOLA        CLEAR     50  44  79 CALM      29.87S
$$

WIZ003>005-009-010-017-018-061000-
NORTH CENTRAL WISCONSIN

CITY           SKY/WX    TMP DP  RH WIND       PRES   REMARKS
MANITOWISH WTR CLOUDY    48  42  79 CALM      29.83F
ARBOR VITAE    MOCLDY    52  40  64 SW10      29.83F
WOODRUFF       MOCLDY    52  40  64 SW10      29.83F
RHINELANDER    PTCLDY    54  37  52 SW7       29.86F
EAGLE RIVER    PTCLDY    50  35  58 CALM      29.84F
LAND O LAKES   PTCLDY    49  37  63 SW3       29.84F
PHILLIPS       CLEAR     52  38  57 S6        29.83F
TOMAHAWK       PTCLDY    40  37  90 CALM      29.86F
MEDFORD        PTCLDY    50  40  68 SW7       29.86F
MERRILL        CLEAR     39  39  99 CALM      29.88S
$$

WIZ029-030-035-036-043>047-061000-
CENTRAL WISCONSIN

CITY           SKY/WX    TMP DP  RH WIND       PRES   REMARKS
WAUSAU         CLEAR     53  42  66 CALM      29.86F
MOSINEE        CLEAR     46  41  81 S5        29.89S
MARSHFIELD     CLEAR     51  38  60 SW3       29.87F
STEVENS POINT  MOCLDY    47  38  70 CALM      29.89F
WAUPACA        CLEAR     45  38  76 CALM      29.90F
WAUTOMA        MOCLDY    43  39  86 SE3       29.92F
WISC RAPIDS    MOCLDY    50  38  63 SW5       29.90F
CAMP DOUGLAS   PTCLDY    51  44  77 S5        29.89F
$$

WIZ011>013-019>022-031-037>040-048>050-061000-
NORTHEAST WISCONSIN

CITY           SKY/WX    TMP DP  RH WIND       PRES   REMARKS
ANTIGO         CLEAR     49  38  67 CALM      29.87F
SHAWANO        CLOUDY    51  36  57 CALM      29.89F
OCONTO         CLOUDY    48  46  93 S3        29.89S
STURGEON BAY   CLEAR     46  37  71 S7        29.91F
GREEN BAY      PTCLDY    48  43  82 S7        29.90S
MANITOWOC      CLOUDY    47  42  83 SE5       29.92S
APPLETON       CLOUDY    50  34  53 SW8       29.89S
CLINTONVILLE   CLEAR     45  37  76 CALM      29.89F
OSHKOSH        CLOUDY    50  36  58 S3        29.91F
$$

WIZ032>034-041-042-053>061-061000-
SOUTHWEST WISCONSIN

CITY           SKY/WX    TMP DP  RH WIND       PRES   REMARKS
LA CROSSE      CLEAR     55  42  61 SE7       29.89F
SPARTA         CLEAR     43  41  91 CALM      29.90F
VIROQUA        PTCLDY    53  38  56 SW6       29.92F
BOSCOBEL       CLEAR     45  41  86 CALM      29.94S
PRAIRIE DU CHI CLEAR     48  40  73 CALM      29.93S
PLATTEVILLE    CLEAR     49  39  68 S7        29.95S
$$

WIZ056-057-062-063-064-067-068-061000-
SOUTH CENTRAL WISCONSIN

CITY           SKY/WX    TMP DP  RH WIND       PRES   REMARKS
REEDSBURG      CLOUDY    49  41  72 CALM      29.92S
BARABOO/DELLS  CLOUDY    51  38  61 S5        29.92S
LONE ROCK      PTCLDY    45  40  82 CALM      29.94S
MINERAL POINT  CLEAR     52  36  54 S7        29.95S
MADISON        PTCLDY    46  40  79 CALM      29.94S
MIDDLETON      MOCLDY    49  37  62 CALM      29.95R
WATERTOWN      PTCLDY    43  42  99 CALM      29.94S
MONROE         PTCLDY    50  36  57 SW7       29.95S
JANESVILLE     CLOUDY    46  43  87 CALM      29.96R
$$

WIZ051-052-058>065-066-070>072-061000-
SOUTHEAST WISCONSIN

CITY           SKY/WX    TMP DP  RH WIND       PRES   REMARKS
MILWAUKEE      CLOUDY    49  40  71 S5        29.94F
WAUKESHA       CLOUDY    45  41  87 CALM      29.95S
MILWAUKEE/TIMM CLOUDY    46  37  71 SW3       29.95R
RACINE         CLOUDY    48  38  68 CALM      29.96S
BURLINGTON     CLOUDY    44  42  93 CALM      29.95S
KENOSHA        CLOUDY    44  40  85 W6        29.95S
FOND DU LAC    PTCLDY    47  39  74 S5        29.92F
SHEBOYGAN      CLOUDY    50  41  71 SW3       29.93R
WEST BEND      CLOUDY    46  39  76 CALM      29.92F
JUNEAU         CLEAR     44  38  80 S3        29.95S
$$

LSZ147-162-061000-
LAKE SUPERIOR

STATION/POSITION TIME  TEMP    WIND        PRES    WAVE
                       AIR SEA DIR/SP/G            HT/PER
                 (UTC) (F)     (DEG/KT/KT) (MB)    (FT/S)
W MID LAKE BUOY  0850   41 37  210/  6/  6 1007.5R   1
DEVILS ISLAND    0900   41     260/  6/  7 1007.7F
SAXON HARBOR     0900   64     180/ 11/ 20 1007.1F
$$

LMZ867-665-643>646-061000-
LAKE MICHIGAN

STATION/POSITION TIME  TEMP    WIND        PRES    WAVE
                       AIR SEA DIR/SP/G            HT/PER
                 (UTC) (F)     (DEG/KT/KT) (MB)    (FT/S)
CHAMBERS ISLAND  0800   51     180/  5/ 11 1012.2S
N MID LAKE BUOY  0850   41 39  190/ 10/ 10 1012.5F   1
NORTHPORT PIER   0800   48     180/  4/  8 1012.2S
ALGOMA LAKESHORE 0815          220/  9/ 10   N/A
KEWAUNEE LAKESHO 0900   44     180/  7/  8 1012.0F
SHEBOYGAN LAKESH 0900   47     140/ 10/ 10 1013.7S
PORT WASHINGTON  0800   49     250/  4/  4 1014.2F
S MID LAKE BUOY  0850   42 40  220/  6/  6 1014.4F   1/ 5
KENOSHA   LAKESH 0900   47     170/  5/  5 1014.6R
$$

TC  - TEMPERATURE IN CELSIUS
VSB - VISIBILITY IN STATUTE MILES
WCI - WIND CHILL INDEX
HX  - HEAT INDEX





USA.gov is the U.S. government's official web portal to all federal, state and local government web resources and services.